Weather in Vilshany

Ukraine / Kharkiv Region     50°03′13″N   35°53′01″E
temp.,
°C
wind,
m/s
gust,
m/s
humid.,
%
clouds,
%
prec.,
mm/h
press.,
hPa
HPBL,
m
12 may, wed
wed1200:00+8ene81484100 0.2 10181402
03:00+8e81383100 0.3 10171325
06:00+8e71382100 0.1 10181257
09:00+9e71379100 0.3 10191429
12:00+8e51188100 0.3 10181088
15:00+9ese488495 0.6 1016881
18:00+10ese487756 0.4 1015796
21:00+8ese499391 2.3 1014260
13 may, thu
thu1300:00+7se4109716 0.6 1013268
03:00+5se379772 0.6 1014163
06:00+6se3796100 0.0 1015209
09:00+11sse4679100 0.0 1015565
12:00+16s465623 0.0 10141582
15:00+18sse56527 0.0 10141702
18:00+18s36597 0.0 10131270
21:00+13ese3482100 0.0 101452
14 may, fri
fri1400:00+12e3585100 0.0 101481
03:00+12e3690100 0.0 1013111
06:00+13ese3109091 0.0 1012234
09:00+18se5108282 0.9 1012536
12:00+23sse676053 0.0 10111172
15:00+24sse685495 0.0 10101539
18:00+23se4865100 0.0 1009598
21:00+17sse338592 1.6 100929
15 may, sat
sat1500:00+16wsw228612 4.1 100919
03:00+13sw228486 4.2 101026
06:00+13sw25901 0.0 1011115
09:00+18sw4673100 0.0 1011547
12:00+22sw4553100 0.0 10121516
15:00+23ssw574791 0.0 10122463
18:00+21wsw46623 0.1 1012888
21:00+15wnw22833 0.1 101433
16 may, sun
sun1600:00+14nnw22864 0.0 101423
03:00+13ne229023 0.0 101519
06:00+13ne248962 0.0 1015102
09:00+18ne3469100 0.0 1015526
12:00+22ene445498 0.0 10141162
15:00+23ene4552100 0.0 10131461
18:00+22ne586469 0.0 1012671
21:00+18ne4128788 0.4 1011316